This demonstration page uses our WeatherBlox Daily Observations layout. Learn more.

Left ArrowRight Arrow

47.50024, -111.30081

Hourly Observations for March 2, 2017

Temp ( °F °C ) Dew Point ( °F °C ) Humidity (%) Winds ( mph kmh ) Pressure ( in mb ) Visibility ( mi km ) Precip ( " mm )
12:10 am 00:10 Cloudy with Light Snow 27 -3 25 -4 93 93 S 6 9 30.42 1030 2 3 0.00 0.00
12:29 am 00:29 Cloudy with Light Snow 26 -3.3 24 -4.4 92 92 S 5 7 30.42 1030 1 2 0.02 0.51
12:37 am 00:37 Cloudy with Light Snow 26 -3.3 24 -4.4 92 92 S 5 7 30.42 1030 2 2 0.02 0.51
12:53 am 00:53 Cloudy with Light Snow 26 -3.3 24 -4.4 92 92 S 5 7 30.40 1029 2 3 0.03 0.76
1:04 am 01:04 Cloudy with Light Snow 27 -3 25 -4 93 93 S 5 7 30.42 1030 3 4 0.00 0.00
1:17 am 01:17 Cloudy with Light Snow 26 -3.3 24 -4.4 92 92 S 5 7 30.42 1030 3 5 0.00 0.03
1:27 am 01:27 Cloudy with Light Snow 25 -3.9 23 -5 92 92 SSE 6 9 30.45 1031 7 11 0.00 0.03
1:53 am 01:53 Cloudy 25 -3.9 23 -5 92 92 SE 3 6 30.39 1029 10 16 0.00 0.03
2:53 am 02:53 Cloudy 25 -3.9 23 -5 92 92 E 5 7 30.39 1029 10 16 0.00 0.03
3:53 am 03:53 Cloudy 24 -4.4 21 -6.1 88 88 E 6 9 30.40 1030 10 16 0.00 0.00
4:53 am 04:53 Clear 24 -4.4 20 -6.7 84 84 E 9 15 30.42 1030 10 16 0.00 0.00
5:13 am 05:13 Partly Cloudy 24 -4.4 20 -6.7 84 84 E 9 15 30.45 1031 10 16 0.00 0.00
5:22 am 05:22 Mostly Cloudy 25 -4 21 -6 86 86 E 10 17 30.45 1031 3 5 0.00 0.00
5:34 am 05:34 Cloudy 21 -6 21 -6 100 100 ENE 9 15 30.48 1032 8 13 0.00 0.00
5:53 am 05:53 Cloudy 22 -5.6 20 -6.7 92 92 ENE 9 15 30.44 1031 2 3 0.00 0.00
6:16 am 06:16 Cloudy with Mist and Fog 21 -6 19 -7 93 93 E 10 17 30.48 1032 1 1 0.00 0.00
6:53 am 06:53 Mostly Cloudy with Freezing Fog 22 -5.6 20 -6.7 92 92 E 12 19 30.43 1031 1 1 0.00 0.00
7:04 am 07:04 Mostly Cloudy with Freezing Fog 21 -6 19 -7 93 93 E 8 13 30.48 1032 0 0 0.00 0.00
7:45 am 07:45 Cloudy 20 -6.7 17 -8.3 89 89 E 6 9 30.48 1032 0 0 0.00 0.00
7:53 am 07:53 Cloudy 20 -6.7 19 -7.2 96 96 E 5 7 30.43 1031 1 1 0.00 0.00
8:05 am 08:05 Cloudy with Mist and Fog 21 -6.1 20 -6.7 96 96 E 5 7 30.48 1032 1 2 0.00 0.00
8:13 am 08:13 Cloudy with Freezing Fog 21 -6.1 20 -6.7 96 96 Calm 30.48 1032 1 1 0.00 0.00
8:31 am 08:31 Cloudy 19 -7.2 19 -7.2 100 100 SSW 3 6 30.50 1033 2 2 0.00 0.00
8:43 am 08:43 Cloudy 19 -7.2 18 -7.8 96 96 SW 5 7 30.50 1033 2 2 0.00 0.00
8:53 am 08:53 Mostly Cloudy 19 -7.2 18 -7.8 96 96 WSW 3 6 30.44 1031 10 16 0.00 0.00
9:53 am 09:53 Sunny 24 -4.4 22 -5.6 91 91 SW 6 9 30.42 1030 10 16 0.00 0.00
10:53 am 10:53 Sunny 31 -0.6 25 -3.9 79 79 SSW 7 11 30.37 1029 10 16 0.00 0.00
11:53 am 11:53 Mostly Sunny 37 2.8 27 -2.8 67 67 SW 15 24 30.34 1027 10 16 0.00 0.00
12:53 pm 12:53 Mostly Sunny 41 5 25 -3.9 53 53 SW 22 35 30.30 1026 10 16 0.00 0.00
1:53 pm 13:53 Cloudy 40 4.4 23 -5 51 51 SW 22 35 30.27 1025 10 16 0.00 0.00
2:53 pm 14:53 Cloudy 39 3.9 22 -5.6 50 50 SW 14 22 30.27 1025 10 16 0.00 0.00
3:53 pm 15:53 Mostly Sunny 39 3.9 22 -5.6 50 50 SW 13 20 30.23 1024 10 16 0.00 0.00
4:53 pm 16:53 Cloudy 39 3.9 22 -5.6 50 50 SSW 9 15 30.20 1023 10 16 0.00 0.00
5:53 pm 17:53 Mostly Cloudy 37 2.8 23 -5 57 57 S 7 11 30.19 1022 10 16 0.00 0.00
6:53 pm 18:53 Clear 35 1.7 23 -5 61 61 SW 9 15 30.16 1022 10 16 0.00 0.00
7:53 pm 19:53 Clear 37 2.8 22 -5.6 54 54 SSW 15 24 30.14 1021 10 16 0.00 0.00
8:53 pm 20:53 Cloudy 39 3.9 20 -6.7 46 46 SW 18 30 30.11 1020 10 16 0.00 0.00
9:53 pm 21:53 Clear 40 4.4 19 -7.2 43 43 SW 21 33 30.08 1019 10 16 0.00 0.00
10:53 pm 22:53 Clear 40 4.4 19 -7.2 43 43 SW 16 26 30.05 1018 10 16 0.00 0.00
11:53 pm 23:53 Clear 38 3.3 20 -6.7 48 48 SW 15 24 30.03 1017 10 16 0.00 0.00

Powered by AerisWeather